Home   Weather   Brantford   Past weeks

Flag for Canada Past Weather in Brantford, Ontario, Canada — Yesterday and Last 2 Weeks

Now
45 °F

Fog.


Feels Like: 39 °F
Forecast: 46 / 69 °F
Wind: 12 mph from Northeast

Location: Hamilton Airport

Current Time: Apr 26, 2017 at 3:56:18 am

Latest Report: Apr 26, 2017 at 3:00 am


Visibility: 2 mi

Pressure: 29.82 "Hg

Humidity: 100%

Dew Point: 45 °F

Location of BrantfordLocation

Past Weather in Brantford — Graph

°F

Brantford Temperature Yesterday

Maximum temperature yesterday: 48 °F (at 1:15 pm)
Minimum temperature yesterday: 39 °F (at 7:00 am)
Average temperature yesterday: 43 °F

High & Low Weather Summary for the Past Weeks

 TemperatureHumidityPressure
High72 °F (Apr 15, 5:00 pm)100% (Apr 20, 11:00 am)30.54 "Hg (Apr 20, 11:00 am)
Low30 °F (Apr 18, 5:00 am)28% (Apr 23, 4:00 pm)29.75 "Hg (Apr 16, 11:00 am)
Average48 °F77%30.09 "Hg
* Reported Apr 11 2:00 am — Apr 26 2:00 am, Brantford, Weather by CustomWeather, © 2017

Note: Actual official high and low records may vary slightly from our data, if they occured in-between our weather recording intervals... More about our weather records

Advertising

Brantford Weather History for the Previous 24 Hours

Scroll right to see more
 ConditionsComfort  
Time TempWeatherWind HumidityBarometerVisibility
2:00 am
Wed, Apr 26
45 °FFog.10 mph100%29.83 "Hg6 mi
1:00 am45 °FFog.10 mph100%29.84 "Hg5 mi
12:00 am43 °FFog.12 mph100%29.84 "Hg2 mi
11:00 pm
Tue, Apr 25
43 °FFog.15 mph100%29.85 "Hg1 mi
10:00 pm43 °FFog.14 mph100%29.86 "Hg1 mi
9:00 pm43 °FFog.18 mph100%29.87 "Hg1 mi
8:00 pm43 °FFog.17 mph100%29.88 "Hg1 mi
7:00 pm43 °FFog.20 mph100%29.89 "Hg1 mi
6:00 pm43 °FFog.16 mph100%29.90 "Hg1 mi
5:00 pm45 °FLight rain. Fog.14 mph100%29.91 "Hg1 mi
4:00 pm46 °FLight rain. Fog.14 mph93%29.93 "Hg2 mi
3:00 pm48 °FLight rain. Fog.14 mph94%29.94 "Hg2 mi
2:00 pm46 °FLight rain. Fog.16 mph100%29.95 "Hg1 mi
1:50 pm46 °FLight rain. Fog.15 mph100%29.95 "Hg1 mi
1:36 pm48 °FLight rain. Fog.17 mph94%29.95 "Hg1 mi
1:15 pm48 °FLight rain. Fog.15 mph100%29.95 "Hg1 mi
1:00 pm46 °FLight rain. Fog.16 mph100%29.96 "Hg1 mi
12:32 pm46 °FLight rain. Fog.12 mph100%29.98 "Hg1 mi
12:00 pm46 °FLight rain. Fog.14 mph100%29.99 "Hg1 mi
11:38 am45 °FLight rain. Fog.13 mph100%30.00 "Hg1 mi
11:00 am43 °FLight rain. Fog.12 mph100%30.00 "Hg1 mi
10:53 am43 °FLight rain. Fog.13 mph100%30.00 "Hg1 mi
10:00 am43 °FLight rain. Fog.15 mph93%30.01 "Hg2 mi
9:00 am41 °FLight rain. Fog.14 mph100%30.01 "Hg2 mi
8:00 am41 °FLight rain. Fog.15 mph93%30.02 "Hg6 mi
7:33 am39 °FLight rain. Fog.15 mph100%30.02 "Hg5 mi
7:00 am39 °FLight rain. Fog.14 mph93%30.02 "Hg12 mi
6:50 am41 °FLight rain. Fog.16 mph87%30.01 "Hg6 mi
6:00 am41 °FLight rain. Overcast.15 mph87%29.99 "Hg15 mi
5:31 am41 °FLight rain. Overcast.18 mph81%29.99 "Hg15 mi
5:00 am41 °FMostly cloudy.17 mph81%30.00 "Hg15 mi
4:00 am41 °FPassing clouds.15 mph81%29.99 "Hg15 mi
3:00 am41 °FPassing clouds.16 mph81%30.01 "Hg15 mi
Weather by CustomWeather, © 2017

See weather overviewHow to use our weather pages